Weather History for KTTF - October, 2011

Change the Weather History Date:

Monday, October 10, 2011

  Actual Average Record
Temperature  
Mean Temperature 62 °F -  
Max Temperature 71 °F 60 °F 87 °F (1939)
Min Temperature 53 °F 43 °F 29 °F (1993)
Degree Days  
Heating Degree Days 3    
Growing Degree Days 12 (Base 50)    
Moisture  
Dew Point 56 °F    
Average Humidity 80    
Maximum Humidity 100    
Minimum Humidity 50    
Precipitation  
Precipitation 0.00 in - - ()
Sea Level Pressure  
Sea Level Pressure 30.24 in    
Wind  
Wind Speed 3 mph (East)    
Max Wind Speed 8 mph    
Max Gust Speed -    
Visibility 8 miles    
Events Fog    
Averages and records for this station are not official NWS values.
T = Trace of Precipitation, MM = Missing Value Source: NWS Daily Summary

Daily Weather History Graph

Daily Weather History Graph

Search for Another Location

Airport or City:

Trip Planner

Search our weather history database for the weather conditions in past years. The results will help you decide how hot, cold, wet, or windy it might be!

Date:

Astronomy

Oct. 10, 2011 Rise Set
Actual Time 7:40 AM EDT 7:00 PM EDT
Civil Twilight 7:12 AM EDT 7:28 PM EDT
Nautical Twilight 6:39 AM EDT 8:00 PM EDT
Astronomical Twilight 6:07 AM EDT 8:33 PM EDT
Moon 6:03 PM EDT (10/10) 6:20 AM EDT (10/10)
Length of Visible Light 12h 16m
Length of Day
11h 20m
Waxing Gibbous, 98% of the Moon is Illuminated
Oct 10
Waxing Gibbous
Oct 11
Full
Oct 19
Last Quarter
Oct 26
New
Nov 2
First Quarter

Hourly Weather History & Observations

Time (EDT) Temp. Dew Point Humidity Pressure Visibility Wind Dir Wind Speed Gust Speed Precip Events Conditions
12:10 AM 55.4 °F 55.4 °F 100% 30.30 in 10.0 mi Calm Calm - N/A   Clear
12:30 AM 57.2 °F 57.2 °F 100% 30.30 in 10.0 mi North 4.6 mph - N/A   Clear
12:51 AM 55.4 °F 55.4 °F 100% 30.30 in 5.0 mi Calm Calm - N/A   Clear
1:11 AM 55.4 °F 55.4 °F 100% 30.30 in 5.0 mi Calm Calm - N/A   Clear
1:31 AM 55.4 °F 55.4 °F 100% 30.30 in 7.0 mi Calm Calm - N/A   Clear
1:51 AM 55.4 °F 55.4 °F 100% 30.30 in 7.0 mi Calm Calm - N/A   Clear
2:11 AM 55.4 °F 55.4 °F 100% 30.29 in 5.0 mi North 3.5 mph - N/A   Clear
2:31 AM 55.4 °F 55.4 °F 100% 30.29 in 3.0 mi Calm Calm - N/A   Clear
3:11 AM 53.6 °F 53.6 °F 100% 30.29 in 0.8 mi Calm Calm - N/A   Mostly Cloudy
3:52 AM 53.6 °F 53.6 °F 100% 30.29 in 3.0 mi North 3.5 mph - N/A   Clear
4:12 AM 53.6 °F 53.6 °F 100% 30.28 in 1.5 mi Calm Calm - N/A   Mist
4:32 AM 53.6 °F 53.6 °F 100% 30.28 in 0.8 mi Calm Calm - N/A   Mostly Cloudy
4:52 AM 53.6 °F 53.6 °F 100% 30.28 in 0.2 mi North 3.5 mph - N/A Fog Fog
5:12 AM 53.6 °F 53.6 °F 100% 30.28 in 0.2 mi Calm Calm - N/A Fog Fog
5:52 AM 53.6 °F 53.6 °F 100% 30.27 in 2.5 mi Calm Calm - N/A   Clear
6:32 AM 55.4 °F 55.4 °F 100% 30.28 in 2.5 mi Calm Calm - N/A   Clear
6:53 AM 53.6 °F 53.6 °F 100% 30.28 in 2.0 mi Calm Calm - N/A   Clear
7:33 AM 55.4 °F 55.4 °F 100% 30.28 in 2.5 mi Calm Calm - N/A   Clear
8:13 AM 57.2 °F 57.2 °F 100% 30.28 in 2.0 mi Calm Calm - N/A   Clear
8:33 AM 59.0 °F 59.0 °F 100% 30.29 in 2.0 mi Calm Calm - N/A   Clear
9:13 AM 62.6 °F 62.6 °F 100% 30.29 in 4.0 mi East 3.5 mph - N/A   Clear
9:33 AM 64.4 °F 64.4 °F 100% 30.29 in 7.0 mi East 4.6 mph - N/A   Clear
9:54 AM 66.2 °F 64.4 °F 94% 30.29 in 10.0 mi East 4.6 mph - N/A   Clear
10:14 AM 69.8 °F 62.6 °F 78% 30.30 in 10.0 mi East 5.8 mph - N/A   Clear
10:34 AM 69.8 °F 60.8 °F 73% 30.30 in 10.0 mi ESE 5.8 mph - N/A   Clear
10:54 AM 71.6 °F 57.2 °F 60% 30.29 in 10.0 mi East 5.8 mph - N/A   Clear
11:34 AM 71.6 °F 55.4 °F 57% 30.29 in 10.0 mi ESE 5.8 mph - N/A   Clear
11:54 AM 69.8 °F 55.4 °F 60% 30.28 in 10.0 mi East 5.8 mph - N/A   Clear
12:15 PM 69.8 °F 57.2 °F 64% 30.28 in 10.0 mi ESE 6.9 mph - N/A   Clear
12:35 PM 69.8 °F 55.4 °F 60% 30.27 in 10.0 mi ESE 5.8 mph - N/A   Clear
12:55 PM 69.8 °F 57.2 °F 64% 30.27 in 10.0 mi East 4.6 mph - N/A   Clear
1:15 PM 69.8 °F 57.2 °F 64% 30.27 in 10.0 mi ESE 5.8 mph - N/A   Clear
1:35 PM 69.8 °F 57.2 °F 64% 30.26 in 10.0 mi ESE 3.5 mph - N/A   Clear
1:50 PM 69.8 °F 57.2 °F 64% 30.25 in 10.0 mi SSE 3.5 mph - N/A   Clear
2:10 PM 71.6 °F 55.4 °F 57% 30.24 in 10.0 mi SE 5.8 mph - N/A   Clear
2:31 PM 71.6 °F 53.6 °F 53% 30.23 in 10.0 mi ESE 4.6 mph - N/A   Clear
2:51 PM 71.6 °F 51.8 °F 50% 30.22 in 10.0 mi ESE 5.8 mph - N/A   Clear
3:11 PM 71.6 °F 51.8 °F 50% 30.22 in 10.0 mi SE 4.6 mph - N/A   Clear
3:31 PM 71.6 °F 51.8 °F 50% 30.21 in 10.0 mi East 8.1 mph - N/A   Clear
3:51 PM 71.6 °F 51.8 °F 50% 30.21 in 10.0 mi SE 5.8 mph - N/A   Clear
4:11 PM 71.6 °F 51.8 °F 50% 30.20 in 10.0 mi ESE 6.9 mph - N/A   Clear
4:31 PM 71.6 °F 51.8 °F 50% 30.19 in 10.0 mi ESE 4.6 mph - N/A   Clear
5:14 PM 69.8 °F 51.8 °F 53% 30.18 in 10.0 mi ESE 5.8 mph - N/A   Clear
5:34 PM 69.8 °F 51.8 °F 53% 30.17 in 10.0 mi ESE 6.9 mph - N/A   Clear
6:14 PM 69.8 °F 51.8 °F 53% 30.16 in 10.0 mi ESE 5.8 mph - N/A   Clear
6:34 PM 69.8 °F 51.8 °F 53% 30.16 in 10.0 mi ESE 3.5 mph - N/A   Clear
6:54 PM 66.2 °F 53.6 °F 64% 30.16 in 10.0 mi East 4.6 mph - N/A   Clear
7:14 PM 64.4 °F 53.6 °F 68% 30.15 in 10.0 mi ESE 5.8 mph - N/A   Clear
7:35 PM 64.4 °F 55.4 °F 73% 30.16 in 10.0 mi East 3.5 mph - N/A   Clear
7:55 PM 64.4 °F 57.2 °F 77% 30.16 in 10.0 mi East 3.5 mph - N/A   Clear
8:15 PM 62.6 °F 57.2 °F 82% 30.15 in 10.0 mi East 4.6 mph - N/A   Clear
8:35 PM 62.6 °F 57.2 °F 82% 30.15 in 10.0 mi East 4.6 mph - N/A   Clear
8:55 PM 62.6 °F 57.2 °F 82% 30.15 in 10.0 mi East 3.5 mph - N/A   Clear
9:30 PM 60.8 °F 60.8 °F 100% 30.15 in 10.0 mi Calm Calm - N/A   Clear
9:50 PM 60.8 °F 60.8 °F 100% 30.15 in 10.0 mi East 3.5 mph - N/A   Clear
10:11 PM 62.6 °F 60.8 °F 94% 30.15 in 10.0 mi East 5.8 mph - N/A   Clear
10:31 PM 62.6 °F 60.8 °F 94% 30.15 in 10.0 mi East 4.6 mph - N/A   Clear
10:51 PM 60.8 °F 60.8 °F 100% 30.15 in 10.0 mi East 5.8 mph - N/A   Clear
11:11 PM 60.8 °F 60.8 °F 100% 30.15 in 7.0 mi East 5.8 mph - N/A   Clear
11:31 PM 60.8 °F 60.8 °F 100% 30.15 in 7.0 mi East 3.5 mph - N/A   Clear
11:51 PM 60.8 °F 60.8 °F 100% 30.15 in 7.0 mi East 3.5 mph - N/A   Clear